Regional Weather Roundup
Issued by NWS

Home | Current Version | Previous Version | Graphics & Text | Print | Product List | Glossary On
Versions: 1 2 3 4 5 6 7 8 9 10 11 12 13 14 15 16 17 18 19 20 21 22 23 24 25 26 27 28 29 30 31 32 33 34 35 36 37 38 39 40 41 42 43 44 45 46 47 48 49 50
000
ASUS43 KLOT 240408
RWRIL

ILLINOIS REGIONAL WEATHER ROUNDUP
NATIONAL WEATHER SERVICE CHICAGO/ROMEOVILLE IL
1100 PM CDT SUN APR 23 2017

NOTE: "FAIR" INDICATES FEW OR NO CLOUDS BELOW 12,000 FEET WITH NO
SIGNIFICANT WEATHER AND/OR OBSTRUCTIONS TO VISIBILITY.

* THESE STATIONS ARE NOT UNDER NWS QUALITY CONTROL. THEY ALSO MAY NOT
  REPORT WEATHER SUCH AS PRECIPITATION OR FOG.

ILZ001-002-007-009-015-016-024-240500-
NORTHWEST ILLINOIS

CITY           SKY/WX    TMP DP  RH WIND       PRES   REMARKS
MOLINE         CLEAR     51  40  65 NE3       30.01S
STERLING*      CLEAR     50  39  66 CALM      30.02S
SAVANNA*       CLOUDY    52  44  74 CALM      30.01F
$$

ILZ003-004-008-010-011-017-018-240500-
NORTH CENTRAL ILLINOIS

CITY           SKY/WX    TMP DP  RH WIND       PRES   REMARKS
ROCKFORD       MOCLDY    56  35  45 S5        30.04S
FREEPORT*      CLOUDY    51  33  51 S3        30.03S
ROCHELLE*      CLEAR     51  35  54 SE3       30.04S
DE KALB*       CLOUDY    52  34  49 SE6       30.04F
PERU*          CLOUDY    57  28  33 SE6       30.02F
$$

ILZ005-006-012>014-019>023-240500-
NORTHEAST ILLINOIS

CITY           SKY/WX    TMP DP  RH WIND       PRES   REMARKS
CHICAGO-OHARE  CLOUDY    45  38  76 NE6       30.04F
CHICAGO-MIDWAY MOCLDY    53  39  59 N8        30.04F
AURORA         PTCLDY    53  34  48 E3        30.03F
LANSING*       CLEAR     51  34  52 NE5       30.04S
JOLIET*        PTCLDY    51  34  53 CALM      30.03S
WAUKEGAN       PTCLDY    40  32  73 N5        30.06F
DUPAGE AIRPORT MOCLDY    51  36  56 NE8       30.03F
KANKAKEE*      CLEAR     47  26  43 CALM      30.04F
WHEELING       CLOUDY    42  39  89 NE3       30.07S
MORRIS*        PTCLDY    53  32  45 CALM      30.02S
ROMEOVILLE*    PTCLDY    55  33  44 E7        30.03F
NORTHERLY ISL    N/A     44  41  89 N13         N/A
$$

LMZ740>746-240500-
SOUTHERN LAKE MICHIGAN

STATION/POSITION SKY/WX   TEMP    WIND        PRES    VSBY  WAVE
                          AIR SEA DIR/SP/G                  HT/PER
                          (F)     (DEG/KT/KT) (MB)    (MI)  (FT/S)
SOUTHERN BUOY              40 41   30/  6/  6 1018.8          2/ 5
HARRISON CRIB              44     360/ 12/ 13   N/A
BURNHAM HARBOR             44     360/ 11/ 13   N/A
CALUMET HARBOR             46     340/  7/ 10 1017.0F
BURNS HARBOR               56      90/  7/ 10 1017.6F
MICHIGAN CITY              53      90/  6/  7   N/A
ST. JOSEPH                 52 52  100/  6/  6 1017.8          0
$$

ILZ025>027-034>036-040-047-049-050-058-095>099-240500-
WEST-CENTRAL ILLINOIS

CITY           SKY/WX    TMP DP  RH WIND       PRES   REMARKS
QUINCY         PTCLDY    60  25  26 SE3       30.00F
GALESBURG*     CLEAR     51  32  48 CALM      30.01F
MACOMB*        CLEAR     50  33  52 CALM      30.03F
JACKSONVILLE*  CLEAR     51  33  49 CALM      30.01S
PITTSFIELD*    CLEAR     49  38  65 NW3       30.02S
$$

ILZ028>032-037-038-041>044-048-051>054-059>061-240500-
CENTRAL ILLINOIS

CITY           SKY/WX    TMP DP  RH WIND       PRES   REMARKS
PONTIAC        CLEAR     50  32  50 E6        30.03S
BLOOMINGTON    PTCLDY    51  23  33 E10       30.03S
DECATUR        CLEAR     50  31  48 NE8       30.01F
PEORIA         CLEAR     53  31  42 CALM      30.02S
LACON*         PTCLDY    50  32  49 CALM      30.01S
LINCOLN*       CLEAR     49  31  48 CALM      30.02R
SPRINGFIELD    PTCLDY    50  37  61 CALM      30.01S
TAYLORVILLE    CLEAR     50  33  53 CALM      30.00F
$$

ILZ033-039-045-046-055>057-062-063-240500-
EAST-CENTRAL ILLINOIS

CITY           SKY/WX    TMP DP  RH WIND       PRES   REMARKS
CHAMPAIGN      CLEAR     56  27  32 NE9       30.01F
RANTOUL*       PTCLDY    55  27  33 NE8       30.01F
MATTOON        CLEAR     54  30  40 NE3       29.99F
PARIS*         CLEAR     56  32  41 NE6       30.00F
$$

ILZ079-100>102-240500-
SOUTHWEST ILLINOIS

CITY           SKY/WX    TMP DP  RH WIND       PRES   REMARKS
ALTON          CLEAR     49  37  62 CALM      29.99F
BELLEVILLE     CLEAR     56  34  42 N3        29.97F
CAHOKIA*       CLEAR     47  38  71 CALM      29.99S
SPARTA*        CLEAR     54  35  49 CALM      29.98F
$$

ILZ064>066-069>071-074>076-080>082-084>086-088>090-092>094-240500-
SOUTH-CENTRAL ILLINOIS

CITY           SKY/WX    TMP DP  RH WIND       PRES   REMARKS
CARBONDALE     CLEAR     54  38  54 N8        29.95F
CAIRO*         CLEAR     55  41  58 NE5       29.95R
EFFINGHAM*     CLEAR     58  32  38 CALM      30.01S
MARION         CLEAR     52  39  62 CALM      29.96F
MT. VERNON     CLEAR     54  32  43 N5        29.97F
CENTRALIA*     CLEAR     53  37  53 CALM      29.97F
SALEM*         CLEAR     60  29  31 NE6       29.98F
METROPOLIS*    CLEAR     50  46  84 CALM      29.95F
$$

ILZ067-068-072-073-078-083-087-091-240500-
SOUTHEAST ILLINOIS

CITY           SKY/WX    TMP DP  RH WIND       PRES   REMARKS
LAWRENCEVILLE  CLEAR     55  32  41 N8        29.98S
FLORA*         CLEAR     56  33  42 N5        29.99S
FAIRFIELD*     CLEAR     55  33  42 CALM      29.95F
HARRISBURG*    CLEAR     55  40  57 E5        29.96S
ROBINSON*      CLEAR     53  32  44 NE6       29.99F
CARMI*         CLEAR     52  41  66 N7        29.95F
$$

ABBREVIATIONS USED IN REMARKS
   TC - TEMPERATURE IN CELSIUS
  WCI - WIND CHILL INDEX
   HX - HEAT INDEX
  VSB - VISIBILITY
$$




USA.gov is the U.S. government's official web portal to all federal, state and local government web resources and services.